COSMOS 1900 DEB, 43501

Orbit data source: Space-Track

COSMOS 1900 DEB, 43501 is space debris in LEO originally from a launch on Sat, 12 Dec 1987 UTC launched from the Tyuratam Missile And Space Complex (TTMTR). Debris objects in space refer to the collection of defunct objects orbiting the Earth. Examples of debris include non-operational satellites, rocket bodies, and fragments generated from explosions, collisions, or faulty payload assembly.

Loading next visibility...
Identifier
43501, 1987-101F
Orbit
LEO
Country
Flag of CISCIS
Related business
Manufacturer
Unknown
Mission
Spacecraft
Bus & Motor
Unknown
Mass
Unknown
Launch date (UTC)
1987-12-12 (38 years ago)
Launch vehicle
Unknown
Launch site
Tyuratam Missile And Space Complex (TTMTR)
Object type
Payload
Rocket body
Debris
Shape & HBR
Unknown shape, 0.1 m
Radar Cross Section
Small (<0.1 m²)

Expand to show TLE details & history
Last TLE update: 3 days ago

TLE from 3 days ago
0 COSMOS 1900 DEB
1 43501U 87101F   25292.35713296  .00000899  00000-0  21492-3 0  9993
2 43501  66.0824 317.2823 0043406 248.1302 111.5186 14.58202798201152
Epoch: 2025-10-19T08:34Z
TLE epoch observation values (Epoch: 2025-10-19T08:34:16.287Z)
Latitude
-0.00009°
Longitude
160.63944°
Altitude
712.452 km
Speed
7.494 km/s
True Right ascension
21h 09m 07s
True Declination
0° 00' 00"
Sunlit
Object was in daylight at epoch
Visualization orbit readout
Latitude
Unknown
Longitude
Unknown
Altitude
Unknown
Speed
Unknown
Apparent Right ascension
Unknown
Apparent Declination
Unknown
Sunlit
N/A
Visualization observer readout
Local Sidereal Time
11:51:15
Azimuth
Unknown
Elevation
Unknown
Doppler factor
Unknown
Orbital elements
Apogee altitude
728.122 km
Perigee altitude
666.698 km
Semi-major axis
7,075.547 km
Eccentricity
0.00434
Inclination
66.0824°
RAAN
317.2823°
Arg. of periapsis
248.1302°
True anomaly
111.9804°
Mean anomaly
111.5186°
Eccentric anomaly
111.74959°
Mean motion
3.64673 °/min
Orbital period
98.72 mins
BSTAR
0.00021492
Loading maneuver chart data...
Computing Atmospheric mass density...
Loading historical data...
Loading historical data...
Loading historical data...
Loading historical data...
Loading historical data...
Loading historical data...
Loading historical data...

Documentation

Showing up to 5 results
|